Location: Gloden
(48.4833°N, 15.3167°E)
Time: 02:51:39
(UTC+00:00)

EP 3 - Pass Details

Date: 15 December 2019
Orbit: 231 x 1296 km, 63.3° (Epoch: 19 January)

Event Time Altitude Azimuth Distance (km) Brightness Sun altitude
Rises 05:48:19 0° 216° (SW) 1,819 7.9 -8.7°
Reaches altitude 10° 05:50:10 10° 213° (SSW) 980 6.6 -8.4°
Maximum altitude 05:52:13 67° 129° (SE) 257 3.9 -8.1°
Drops below altitude 10° 05:54:16 10° 46° (NE) 986 6.9 -7.8°
Sets 05:56:09 0° 43° (NE) 1,833 8.2 -7.6°
